Year,Month,Day,Hour,Minute,Value (Times are PST for insolation in W/m^2)
2007,06,14,00,00,0.00
2007,06,14,00,01,0.00
2007,06,14,00,02,0.00
2007,06,14,00,03,0.00
2007,06,14,00,04,0.00
2007,06,14,00,05,0.00
2007,06,14,00,06,0.00
2007,06,14,00,07,0.00
2007,06,14,00,08,0.00
2007,06,14,00,09,0.00
2007,06,14,00,10,0.00
2007,06,14,00,11,0.00
2007,06,14,00,12,0.00
2007,06,14,00,13,0.00
2007,06,14,00,14,0.00
2007,06,14,00,15,0.00
2007,06,14,00,16,0.00
2007,06,14,00,17,0.00
2007,06,14,00,18,0.00
2007,06,14,00,19,0.00
2007,06,14,00,20,0.00
2007,06,14,00,21,0.00
2007,06,14,00,22,0.00
2007,06,14,00,23,0.00
2007,06,14,00,24,0.00
2007,06,14,00,25,0.00
2007,06,14,00,26,0.00
2007,06,14,00,27,0.00
2007,06,14,00,28,0.00
2007,06,14,00,29,0.00
2007,06,14,00,30,0.00
2007,06,14,00,31,0.00
2007,06,14,00,32,0.00
2007,06,14,00,33,0.00
2007,06,14,00,34,0.00
2007,06,14,00,35,0.00
2007,06,14,00,36,0.00
2007,06,14,00,37,0.00
2007,06,14,00,38,0.00
2007,06,14,00,39,0.00
2007,06,14,00,40,0.00
2007,06,14,00,41,0.00
2007,06,14,00,42,0.00
2007,06,14,00,43,0.00
2007,06,14,00,44,0.00
2007,06,14,00,45,0.00
2007,06,14,00,46,0.00
2007,06,14,00,47,0.00
2007,06,14,00,48,0.00
2007,06,14,00,49,0.00
2007,06,14,00,50,0.00
2007,06,14,00,51,0.00
2007,06,14,00,52,0.00
2007,06,14,00,53,0.00
2007,06,14,00,54,0.00
2007,06,14,00,55,0.00
2007,06,14,00,56,0.00
2007,06,14,00,57,0.00
2007,06,14,00,58,0.00
2007,06,14,00,59,0.00
2007,06,14,01,00,0.00
2007,06,14,01,01,0.00
2007,06,14,01,02,0.00
2007,06,14,01,03,0.00
2007,06,14,01,04,0.00
2007,06,14,01,05,0.00
2007,06,14,01,06,0.00
2007,06,14,01,07,0.00
2007,06,14,01,08,0.00
2007,06,14,01,09,0.00
2007,06,14,01,10,0.00
2007,06,14,01,11,0.00
2007,06,14,01,12,0.00
2007,06,14,01,13,0.00
2007,06,14,01,14,0.00
2007,06,14,01,15,0.00
2007,06,14,01,16,0.00
2007,06,14,01,17,0.00
2007,06,14,01,18,0.00
2007,06,14,01,19,0.00
2007,06,14,01,20,0.00
2007,06,14,01,21,0.00
2007,06,14,01,22,0.00
2007,06,14,01,23,0.00
2007,06,14,01,24,0.00
2007,06,14,01,25,0.00
2007,06,14,01,26,0.00
2007,06,14,01,27,0.00
2007,06,14,01,28,0.00
2007,06,14,01,29,0.00
2007,06,14,01,30,0.00
2007,06,14,01,31,0.00
2007,06,14,01,32,0.00
2007,06,14,01,33,0.00
2007,06,14,01,34,0.00
2007,06,14,01,35,0.00
2007,06,14,01,36,0.00
2007,06,14,01,37,0.00
2007,06,14,01,38,0.00
2007,06,14,01,39,0.00
2007,06,14,01,40,0.00
2007,06,14,01,41,0.00
2007,06,14,01,42,0.00
2007,06,14,01,43,0.00
2007,06,14,01,44,0.00
2007,06,14,01,45,0.00
2007,06,14,01,46,0.00
2007,06,14,01,47,0.00
2007,06,14,01,48,0.00
2007,06,14,01,49,0.00
2007,06,14,01,50,0.00
2007,06,14,01,51,0.00
2007,06,14,01,52,0.00
2007,06,14,01,53,0.00
2007,06,14,01,54,0.00
2007,06,14,01,55,0.00
2007,06,14,01,56,0.00
2007,06,14,01,57,0.00
2007,06,14,01,58,0.00
2007,06,14,01,59,0.00
2007,06,14,02,00,0.00
2007,06,14,02,01,0.00
2007,06,14,02,02,0.00
2007,06,14,02,03,0.00
2007,06,14,02,04,0.00
2007,06,14,02,05,0.00
2007,06,14,02,06,0.00
2007,06,14,02,07,0.00
2007,06,14,02,08,0.00
2007,06,14,02,09,0.00
2007,06,14,02,10,0.00
2007,06,14,02,11,0.00
2007,06,14,02,12,0.00
2007,06,14,02,13,0.00
2007,06,14,02,14,0.00
2007,06,14,02,15,0.00
2007,06,14,02,16,0.00
2007,06,14,02,17,0.00
2007,06,14,02,18,0.00
2007,06,14,02,19,0.00
2007,06,14,02,20,0.00
2007,06,14,02,21,0.00
2007,06,14,02,22,0.00
2007,06,14,02,23,0.00
2007,06,14,02,24,0.00
2007,06,14,02,25,0.00
2007,06,14,02,26,0.00
2007,06,14,02,27,0.00
2007,06,14,02,28,0.00
2007,06,14,02,29,0.00
2007,06,14,02,30,0.00
2007,06,14,02,31,0.00
2007,06,14,02,32,0.00
2007,06,14,02,33,0.00
2007,06,14,02,34,0.00
2007,06,14,02,35,0.00
2007,06,14,02,36,0.00
2007,06,14,02,37,0.00
2007,06,14,02,38,0.00
2007,06,14,02,39,0.00
2007,06,14,02,40,0.00
2007,06,14,02,41,0.00
2007,06,14,02,42,0.00
2007,06,14,02,43,0.00
2007,06,14,02,44,0.00
2007,06,14,02,45,0.00
2007,06,14,02,46,0.00
2007,06,14,02,47,0.00
2007,06,14,02,48,0.00
2007,06,14,02,49,0.00
2007,06,14,02,50,0.00
2007,06,14,02,51,0.00
2007,06,14,02,52,0.00
2007,06,14,02,53,0.00
2007,06,14,02,54,0.00
2007,06,14,02,55,0.00
2007,06,14,02,56,0.00
2007,06,14,02,57,0.00
2007,06,14,02,58,0.00
2007,06,14,02,59,0.00
2007,06,14,03,00,0.00
2007,06,14,03,01,0.00
2007,06,14,03,02,0.00
2007,06,14,03,03,0.00
2007,06,14,03,04,0.00
2007,06,14,03,05,0.00
2007,06,14,03,06,0.00
2007,06,14,03,07,0.00
2007,06,14,03,08,0.00
2007,06,14,03,09,0.00
2007,06,14,03,10,0.00
2007,06,14,03,11,0.00
2007,06,14,03,12,0.00
2007,06,14,03,13,0.00
2007,06,14,03,14,0.00
2007,06,14,03,15,0.00
2007,06,14,03,16,0.00
2007,06,14,03,17,0.00
2007,06,14,03,18,0.00
2007,06,14,03,19,0.00
2007,06,14,03,20,0.00
2007,06,14,03,21,0.00
2007,06,14,03,22,0.00
2007,06,14,03,23,0.00
2007,06,14,03,24,0.00
2007,06,14,03,25,0.00
2007,06,14,03,26,0.00
2007,06,14,03,27,0.00
2007,06,14,03,28,0.00
2007,06,14,03,29,0.00
2007,06,14,03,30,0.00
2007,06,14,03,31,0.00
2007,06,14,03,32,0.00
2007,06,14,03,33,0.00
2007,06,14,03,34,0.00
2007,06,14,03,35,0.00
2007,06,14,03,36,0.00
2007,06,14,03,37,0.00
2007,06,14,03,38,0.00
2007,06,14,03,39,0.00
2007,06,14,03,40,0.00
2007,06,14,03,41,0.00
2007,06,14,03,42,0.00
2007,06,14,03,43,0.00
2007,06,14,03,44,0.00
2007,06,14,03,45,0.00
2007,06,14,03,46,0.00
2007,06,14,03,47,0.00
2007,06,14,03,48,0.00
2007,06,14,03,49,0.00
2007,06,14,03,50,0.00
2007,06,14,03,51,0.00
2007,06,14,03,52,0.00
2007,06,14,03,53,0.00
2007,06,14,03,54,0.00
2007,06,14,03,55,0.00
2007,06,14,03,56,0.00
2007,06,14,03,57,0.00
2007,06,14,03,58,0.00
2007,06,14,03,59,0.00
2007,06,14,04,00,0.00
2007,06,14,04,01,0.00
2007,06,14,04,02,0.00
2007,06,14,04,03,0.00
2007,06,14,04,04,0.00
2007,06,14,04,05,0.00
2007,06,14,04,06,0.00
2007,06,14,04,07,0.00
2007,06,14,04,08,0.00
2007,06,14,04,09,0.00
2007,06,14,04,10,0.00
2007,06,14,04,11,0.00
2007,06,14,04,12,0.00
2007,06,14,04,13,0.00
2007,06,14,04,14,0.00
2007,06,14,04,15,0.00
2007,06,14,04,16,0.00
2007,06,14,04,17,0.00
2007,06,14,04,18,0.00
2007,06,14,04,19,0.00
2007,06,14,04,20,0.00
2007,06,14,04,21,0.00
2007,06,14,04,22,0.00
2007,06,14,04,23,0.00
2007,06,14,04,24,0.00
2007,06,14,04,25,0.00
2007,06,14,04,26,0.00
2007,06,14,04,27,0.00
2007,06,14,04,28,0.00
2007,06,14,04,29,0.00
2007,06,14,04,30,0.00
2007,06,14,04,31,0.00
2007,06,14,04,32,0.00
2007,06,14,04,33,0.00
2007,06,14,04,34,0.00
2007,06,14,04,35,0.00
2007,06,14,04,36,0.00
2007,06,14,04,37,0.00
2007,06,14,04,38,0.00
2007,06,14,04,39,0.00
2007,06,14,04,40,0.00
2007,06,14,04,41,0.00
2007,06,14,04,42,0.00
2007,06,14,04,43,0.00
2007,06,14,04,44,0.00
2007,06,14,04,45,0.00
2007,06,14,04,46,0.00
2007,06,14,04,47,0.00
2007,06,14,04,48,0.00
2007,06,14,04,49,0.00
2007,06,14,04,50,0.00
2007,06,14,04,51,0.00
2007,06,14,04,52,0.00
2007,06,14,04,53,0.00
2007,06,14,04,54,0.00
2007,06,14,04,55,0.00
2007,06,14,04,56,0.00
2007,06,14,04,57,0.00
2007,06,14,04,58,0.00
2007,06,14,04,59,0.00
2007,06,14,05,00,0.00
2007,06,14,05,01,0.00
2007,06,14,05,02,0.00
2007,06,14,05,03,0.00
2007,06,14,05,04,0.00
2007,06,14,05,05,0.00
2007,06,14,05,06,0.00
2007,06,14,05,07,0.00
2007,06,14,05,08,0.00
2007,06,14,05,09,0.00
2007,06,14,05,10,0.00
2007,06,14,05,11,0.00
2007,06,14,05,12,0.00
2007,06,14,05,13,0.00
2007,06,14,05,14,0.00
2007,06,14,05,15,0.00
2007,06,14,05,16,0.00
2007,06,14,05,17,0.00
2007,06,14,05,18,0.00
2007,06,14,05,19,0.00
2007,06,14,05,20,0.00
2007,06,14,05,21,0.00
2007,06,14,05,22,0.00
2007,06,14,05,23,0.00
2007,06,14,05,24,0.00
2007,06,14,05,25,0.00
2007,06,14,05,26,0.00
2007,06,14,05,27,3.60
2007,06,14,05,28,5.00
2007,06,14,05,29,5.00
2007,06,14,05,30,5.00
2007,06,14,05,31,5.00
2007,06,14,05,32,5.50
2007,06,14,05,33,7.00
2007,06,14,05,34,7.00
2007,06,14,05,35,7.00
2007,06,14,05,36,7.00
2007,06,14,05,37,8.30
2007,06,14,05,38,9.00
2007,06,14,05,39,9.00
2007,06,14,05,40,9.00
2007,06,14,05,41,9.20
2007,06,14,05,42,11.00
2007,06,14,05,43,11.00
2007,06,14,05,44,11.40
2007,06,14,05,45,12.00
2007,06,14,05,46,12.00
2007,06,14,05,47,12.00
2007,06,14,05,48,13.40
2007,06,14,05,49,14.00
2007,06,14,05,50,14.00
2007,06,14,05,51,14.00
2007,06,14,05,52,14.20
2007,06,14,05,53,16.00
2007,06,14,05,54,16.00
2007,06,14,05,55,16.00
2007,06,14,05,56,16.80
2007,06,14,05,57,18.00
2007,06,14,05,58,18.60
2007,06,14,05,59,19.00
2007,06,14,06,00,20.50
2007,06,14,06,01,21.00
2007,06,14,06,02,21.00
2007,06,14,06,03,23.20
2007,06,14,06,04,25.00
2007,06,14,06,05,25.00
2007,06,14,06,06,25.40
2007,06,14,06,07,26.00
2007,06,14,06,08,27.00
2007,06,14,06,09,28.00
2007,06,14,06,10,29.30
2007,06,14,06,11,30.00
2007,06,14,06,12,31.70
2007,06,14,06,13,32.00
2007,06,14,06,14,33.00
2007,06,14,06,15,33.00
2007,06,14,06,16,33.50
2007,06,14,06,17,35.00
2007,06,14,06,18,35.90
2007,06,14,06,19,38.00
2007,06,14,06,20,39.00
2007,06,14,06,21,39.70
2007,06,14,06,22,40.00
2007,06,14,06,23,40.00
2007,06,14,06,24,40.00
2007,06,14,06,25,44.10
2007,06,14,06,26,46.00
2007,06,14,06,27,46.20
2007,06,14,06,28,47.00
2007,06,14,06,29,47.90
2007,06,14,06,30,49.00
2007,06,14,06,31,50.20
2007,06,14,06,32,52.30
2007,06,14,06,33,53.00
2007,06,14,06,34,53.00
2007,06,14,06,35,53.90
2007,06,14,06,36,56.20
2007,06,14,06,37,58.00
2007,06,14,06,38,58.40
2007,06,14,06,39,60.60
2007,06,14,06,40,62.40
2007,06,14,06,41,63.00
2007,06,14,06,42,64.20
2007,06,14,06,43,66.30
2007,06,14,06,44,67.00
2007,06,14,06,45,68.70
2007,06,14,06,46,69.90
2007,06,14,06,47,70.20
2007,06,14,06,48,72.00
2007,06,14,06,49,72.40
2007,06,14,06,50,74.70
2007,06,14,06,51,76.40
2007,06,14,06,52,78.00
2007,06,14,06,53,80.20
2007,06,14,06,54,82.90
2007,06,14,06,55,85.50
2007,06,14,06,56,89.20
2007,06,14,06,57,90.90
2007,06,14,06,58,91.20
2007,06,14,06,59,93.00
2007,06,14,07,00,93.00
2007,06,14,07,01,93.00
2007,06,14,07,02,93.80
2007,06,14,07,03,95.00
2007,06,14,07,04,95.00
2007,06,14,07,05,96.30
2007,06,14,07,06,97.00
2007,06,14,07,07,97.80
2007,06,14,07,08,98.00
2007,06,14,07,09,98.20
2007,06,14,07,10,100.00
2007,06,14,07,11,100.50
2007,06,14,07,12,102.70
2007,06,14,07,13,104.40
2007,06,14,07,14,106.00
2007,06,14,07,15,108.20
2007,06,14,07,16,110.30
2007,06,14,07,17,112.40
2007,06,14,07,18,113.80
2007,06,14,07,19,115.80
2007,06,14,07,20,116.20
2007,06,14,07,21,118.00
2007,06,14,07,22,118.00
2007,06,14,07,23,118.00
2007,06,14,07,24,118.00
2007,06,14,07,25,118.00
2007,06,14,07,26,118.00
2007,06,14,07,27,119.40
2007,06,14,07,28,120.80
2007,06,14,07,29,122.70
2007,06,14,07,30,123.00
2007,06,14,07,31,125.20
2007,06,14,07,32,127.00
2007,06,14,07,33,127.20
2007,06,14,07,34,128.70
2007,06,14,07,35,130.80
2007,06,14,07,36,132.90
2007,06,14,07,37,134.60
2007,06,14,07,38,136.30
2007,06,14,07,39,137.00
2007,06,14,07,40,138.70
2007,06,14,07,41,139.00
2007,06,14,07,42,139.00
2007,06,14,07,43,139.30
2007,06,14,07,44,141.20
2007,06,14,07,45,142.60
2007,06,14,07,46,144.80
2007,06,14,07,47,147.50
2007,06,14,07,48,150.10
2007,06,14,07,49,152.30
2007,06,14,07,50,155.10
2007,06,14,07,51,157.60
2007,06,14,07,52,158.00
2007,06,14,07,53,160.20
2007,06,14,07,54,162.10
2007,06,14,07,55,164.00
2007,06,14,07,56,167.60
2007,06,14,07,57,169.90
2007,06,14,07,58,172.40
2007,06,14,07,59,175.10
2007,06,14,08,00,177.90
2007,06,14,08,01,182.00
2007,06,14,08,02,187.20
2007,06,14,08,03,192.50
2007,06,14,08,04,199.30
2007,06,14,08,05,203.00
2007,06,14,08,06,208.00
2007,06,14,08,07,211.90
2007,06,14,08,08,215.60
2007,06,14,08,09,219.40
2007,06,14,08,10,223.30
2007,06,14,08,11,228.00
2007,06,14,08,12,235.00
2007,06,14,08,13,242.90
2007,06,14,08,14,250.30
2007,06,14,08,15,258.30
2007,06,14,08,16,266.80
2007,06,14,08,17,275.90
2007,06,14,08,18,282.40
2007,06,14,08,19,281.80
2007,06,14,08,20,284.00
2007,06,14,08,21,286.60
2007,06,14,08,22,291.90
2007,06,14,08,23,301.00
2007,06,14,08,24,309.60
2007,06,14,08,25,311.00
2007,06,14,08,26,331.50
2007,06,14,08,27,322.90
2007,06,14,08,28,326.50
2007,06,14,08,29,357.60
2007,06,14,08,30,379.80
2007,06,14,08,31,343.50
2007,06,14,08,32,346.80
2007,06,14,08,33,367.60
2007,06,14,08,34,401.50
2007,06,14,08,35,392.40
2007,06,14,08,36,371.90
2007,06,14,08,37,407.70
2007,06,14,08,38,363.40
2007,06,14,08,39,362.10
2007,06,14,08,40,384.80
2007,06,14,08,41,395.80
2007,06,14,08,42,365.00
2007,06,14,08,43,366.00
2007,06,14,08,44,358.90
2007,06,14,08,45,358.80
2007,06,14,08,46,347.40
2007,06,14,08,47,375.90
2007,06,14,08,48,381.00
2007,06,14,08,49,435.50
2007,06,14,08,50,744.00
2007,06,14,08,51,673.20
2007,06,14,08,52,508.00
2007,06,14,08,53,604.60
2007,06,14,08,54,709.20
2007,06,14,08,55,707.00
2007,06,14,08,56,690.90
2007,06,14,08,57,671.00
2007,06,14,08,58,651.90
2007,06,14,08,59,640.20
2007,06,14,09,00,636.00
2007,06,14,09,01,639.20
2007,06,14,09,02,637.80
2007,06,14,09,03,606.80
2007,06,14,09,04,554.00
2007,06,14,09,05,557.80
2007,06,14,09,06,594.80
2007,06,14,09,07,625.90
2007,06,14,09,08,628.50
2007,06,14,09,09,626.20
2007,06,14,09,10,621.50
2007,06,14,09,11,616.70
2007,06,14,09,12,614.00
2007,06,14,09,13,610.00
2007,06,14,09,14,610.80
2007,06,14,09,15,612.00
2007,06,14,09,16,612.00
2007,06,14,09,17,588.00
2007,06,14,09,18,581.30
2007,06,14,09,19,612.00
2007,06,14,09,20,621.70
2007,06,14,09,21,624.10
2007,06,14,09,22,626.30
2007,06,14,09,23,628.00
2007,06,14,09,24,628.90
2007,06,14,09,25,632.60
2007,06,14,09,26,635.50
2007,06,14,09,27,637.10
2007,06,14,09,28,640.60
2007,06,14,09,29,644.10
2007,06,14,09,30,646.60
2007,06,14,09,31,649.70
2007,06,14,09,32,654.20
2007,06,14,09,33,656.50
2007,06,14,09,34,660.00
2007,06,14,09,35,663.30
2007,06,14,09,36,664.90
2007,06,14,09,37,667.00
2007,06,14,09,38,669.70
2007,06,14,09,39,673.60
2007,06,14,09,40,675.00
2007,06,14,09,41,678.20
2007,06,14,09,42,681.80
2007,06,14,09,43,684.20
2007,06,14,09,44,687.00
2007,06,14,09,45,687.80
2007,06,14,09,46,691.00
2007,06,14,09,47,693.00
2007,06,14,09,48,697.00
2007,06,14,09,49,699.70
2007,06,14,09,50,701.00
2007,06,14,09,51,703.90
2007,06,14,09,52,707.40
2007,06,14,09,53,709.80
2007,06,14,09,54,714.00
2007,06,14,09,55,715.60
2007,06,14,09,56,719.60
2007,06,14,09,57,723.20
2007,06,14,09,58,728.10
2007,06,14,09,59,732.00
2007,06,14,10,00,735.90
2007,06,14,10,01,739.30
2007,06,14,10,02,741.50
2007,06,14,10,03,746.00
2007,06,14,10,04,747.00
2007,06,14,10,05,748.90
2007,06,14,10,06,749.30
2007,06,14,10,07,750.60
2007,06,14,10,08,749.60
2007,06,14,10,09,752.20
2007,06,14,10,10,754.90
2007,06,14,10,11,757.70
2007,06,14,10,12,759.00
2007,06,14,10,13,761.80
2007,06,14,10,14,763.00
2007,06,14,10,15,763.00
2007,06,14,10,16,765.00
2007,06,14,10,17,765.20
2007,06,14,10,18,766.50
2007,06,14,10,19,768.00
2007,06,14,10,20,768.80
2007,06,14,10,21,771.50
2007,06,14,10,22,775.30
2007,06,14,10,23,777.00
2007,06,14,10,24,779.20
2007,06,14,10,25,780.00
2007,06,14,10,26,783.60
2007,06,14,10,27,786.00
2007,06,14,10,28,785.70
2007,06,14,10,29,784.40
2007,06,14,10,30,786.90
2007,06,14,10,31,790.60
2007,06,14,10,32,793.00
2007,06,14,10,33,794.80
2007,06,14,10,34,797.40
2007,06,14,10,35,799.40
2007,06,14,10,36,801.60
2007,06,14,10,37,804.70
2007,06,14,10,38,805.10
2007,06,14,10,39,807.00
2007,06,14,10,40,808.20
2007,06,14,10,41,812.00
2007,06,14,10,42,813.70
2007,06,14,10,43,815.00
2007,06,14,10,44,815.20
2007,06,14,10,45,819.20
2007,06,14,10,46,822.50
2007,06,14,10,47,825.40
2007,06,14,10,48,823.30
2007,06,14,10,49,828.20
2007,06,14,10,50,830.20
2007,06,14,10,51,831.80
2007,06,14,10,52,835.60
2007,06,14,10,53,838.20
2007,06,14,10,54,840.00
2007,06,14,10,55,841.10
2007,06,14,10,56,842.00
2007,06,14,10,57,845.50
2007,06,14,10,58,847.00
2007,06,14,10,59,847.00
2007,06,14,11,00,849.00
2007,06,14,11,01,851.30
2007,06,14,11,02,853.00
2007,06,14,11,03,854.50
2007,06,14,11,04,858.80
2007,06,14,11,05,860.50
2007,06,14,11,06,863.40
2007,06,14,11,07,865.00
2007,06,14,11,08,867.20
2007,06,14,11,09,873.60
2007,06,14,11,10,875.00
2007,06,14,11,11,881.00
2007,06,14,11,12,882.90
2007,06,14,11,13,889.00
2007,06,14,11,14,894.50
2007,06,14,11,15,901.60
2007,06,14,11,16,909.20
2007,06,14,11,17,915.80
2007,06,14,11,18,921.40
2007,06,14,11,19,925.10
2007,06,14,11,20,916.40
2007,06,14,11,21,914.00
2007,06,14,11,22,914.10
2007,06,14,11,23,917.00
2007,06,14,11,24,919.50
2007,06,14,11,25,882.00
2007,06,14,11,26,823.40
2007,06,14,11,27,856.10
2007,06,14,11,28,884.70
2007,06,14,11,29,882.00
2007,06,14,11,30,904.10
2007,06,14,11,31,902.40
2007,06,14,11,32,900.00
2007,06,14,11,33,900.00
2007,06,14,11,34,880.20
2007,06,14,11,35,768.00
2007,06,14,11,36,833.00
2007,06,14,11,37,963.00
2007,06,14,11,38,963.00
2007,06,14,11,39,963.00
2007,06,14,11,40,963.00
2007,06,14,11,41,963.00
2007,06,14,11,42,963.00
2007,06,14,11,43,963.00
2007,06,14,11,44,960.70
2007,06,14,11,45,931.70
2007,06,14,11,46,930.60
2007,06,14,11,47,933.00
2007,06,14,11,48,934.40
2007,06,14,11,49,939.40
2007,06,14,11,50,946.10
2007,06,14,11,51,953.50
2007,06,14,11,52,960.30
2007,06,14,11,53,983.90
2007,06,14,11,54,990.60
2007,06,14,11,55,970.00
2007,06,14,11,56,970.60
2007,06,14,11,57,972.80
2007,06,14,11,58,972.20
2007,06,14,11,59,980.60
2007,06,14,12,00,977.80
2007,06,14,12,01,961.00
2007,06,14,12,02,933.50
2007,06,14,12,03,975.50
2007,06,14,12,04,977.20
2007,06,14,12,05,970.30
2007,06,14,12,06,1015.00
2007,06,14,12,07,993.60
2007,06,14,12,08,993.80
2007,06,14,12,09,986.20
2007,06,14,12,10,982.60
2007,06,14,12,11,977.00
2007,06,14,12,12,988.10
2007,06,14,12,13,948.80
2007,06,14,12,14,947.00
2007,06,14,12,15,978.40
2007,06,14,12,16,995.60
2007,06,14,12,17,986.80
2007,06,14,12,18,992.00
2007,06,14,12,19,995.00
2007,06,14,12,20,987.80
2007,06,14,12,21,991.00
2007,06,14,12,22,991.00
2007,06,14,12,23,984.40
2007,06,14,12,24,970.60
2007,06,14,12,25,962.90
2007,06,14,12,26,964.40
2007,06,14,12,27,960.50
2007,06,14,12,28,960.10
2007,06,14,12,29,962.00
2007,06,14,12,30,962.00
2007,06,14,12,31,961.30
2007,06,14,12,32,960.80
2007,06,14,12,33,962.50
2007,06,14,12,34,962.50
2007,06,14,12,35,962.00
2007,06,14,12,36,962.00
2007,06,14,12,37,962.80
2007,06,14,12,38,963.00
2007,06,14,12,39,964.80
2007,06,14,12,40,963.30
2007,06,14,12,41,965.00
2007,06,14,12,42,965.00
2007,06,14,12,43,965.00
2007,06,14,12,44,965.00
2007,06,14,12,45,966.10
2007,06,14,12,46,967.00
2007,06,14,12,47,964.20
2007,06,14,12,48,967.80
2007,06,14,12,49,967.20
2007,06,14,12,50,965.20
2007,06,14,12,51,966.40
2007,06,14,12,52,963.40
2007,06,14,12,53,965.70
2007,06,14,12,54,967.70
2007,06,14,12,55,969.00
2007,06,14,12,56,969.00
2007,06,14,12,57,969.70
2007,06,14,12,58,970.00
2007,06,14,12,59,970.00
2007,06,14,13,00,969.10
2007,06,14,13,01,970.00
2007,06,14,13,02,970.00
2007,06,14,13,03,970.00
2007,06,14,13,04,970.00
2007,06,14,13,05,970.00
2007,06,14,13,06,970.00
2007,06,14,13,07,970.00
2007,06,14,13,08,970.00
2007,06,14,13,09,971.40
2007,06,14,13,10,970.40
2007,06,14,13,11,969.10
2007,06,14,13,12,973.50
2007,06,14,13,13,970.30
2007,06,14,13,14,972.00
2007,06,14,13,15,972.00
2007,06,14,13,16,971.20
2007,06,14,13,17,970.90
2007,06,14,13,18,972.00
2007,06,14,13,19,972.00
2007,06,14,13,20,970.50
2007,06,14,13,21,970.00
2007,06,14,13,22,970.00
2007,06,14,13,23,970.00
2007,06,14,13,24,970.00
2007,06,14,13,25,970.00
2007,06,14,13,26,970.00
2007,06,14,13,27,969.60
2007,06,14,13,28,969.50
2007,06,14,13,29,971.10
2007,06,14,13,30,970.70
2007,06,14,13,31,969.30
2007,06,14,13,32,969.00
2007,06,14,13,33,969.00
2007,06,14,13,34,967.20
2007,06,14,13,35,969.50
2007,06,14,13,36,967.40
2007,06,14,13,37,968.40
2007,06,14,13,38,967.80
2007,06,14,13,39,967.20
2007,06,14,13,40,963.30
2007,06,14,13,41,963.90
2007,06,14,13,42,963.50
2007,06,14,13,43,964.70
2007,06,14,13,44,963.20
2007,06,14,13,45,964.90
2007,06,14,13,46,965.00
2007,06,14,13,47,964.60
2007,06,14,13,48,963.00
2007,06,14,13,49,962.60
2007,06,14,13,50,963.30
2007,06,14,13,51,963.90
2007,06,14,13,52,962.30
2007,06,14,13,53,964.10
2007,06,14,13,54,963.40
2007,06,14,13,55,963.00
2007,06,14,13,56,962.00
2007,06,14,13,57,961.40
2007,06,14,13,58,958.00
2007,06,14,13,59,957.40
2007,06,14,14,00,956.00
2007,06,14,14,01,955.00
2007,06,14,14,02,953.40
2007,06,14,14,03,953.70
2007,06,14,14,04,953.20
2007,06,14,14,05,953.00
2007,06,14,14,06,953.00
2007,06,14,14,07,952.90
2007,06,14,14,08,951.00
2007,06,14,14,09,950.20
2007,06,14,14,10,947.00
2007,06,14,14,11,946.60
2007,06,14,14,12,946.00
2007,06,14,14,13,943.80
2007,06,14,14,14,943.30
2007,06,14,14,15,946.10
2007,06,14,14,16,944.60
2007,06,14,14,17,945.80
2007,06,14,14,18,945.90
2007,06,14,14,19,944.30
2007,06,14,14,20,945.50
2007,06,14,14,21,944.60
2007,06,14,14,22,946.00
2007,06,14,14,23,946.50
2007,06,14,14,24,947.00
2007,06,14,14,25,951.50
2007,06,14,14,26,915.00
2007,06,14,14,27,890.80
2007,06,14,14,28,940.20
2007,06,14,14,29,939.50
2007,06,14,14,30,918.00
2007,06,14,14,31,835.20
2007,06,14,14,32,812.00
2007,06,14,14,33,809.90
2007,06,14,14,34,807.00
2007,06,14,14,35,813.60
2007,06,14,14,36,861.00
2007,06,14,14,37,938.70
2007,06,14,14,38,900.80
2007,06,14,14,39,850.00
2007,06,14,14,40,887.00
2007,06,14,14,41,947.60
2007,06,14,14,42,937.00
2007,06,14,14,43,883.30
2007,06,14,14,44,854.00
2007,06,14,14,45,850.10
2007,06,14,14,46,847.90
2007,06,14,14,47,848.30
2007,06,14,14,48,856.70
2007,06,14,14,49,882.40
2007,06,14,14,50,894.30
2007,06,14,14,51,892.50
2007,06,14,14,52,918.80
2007,06,14,14,53,922.20
2007,06,14,14,54,911.20
2007,06,14,14,55,878.20
2007,06,14,14,56,861.50
2007,06,14,14,57,867.00
2007,06,14,14,58,865.70
2007,06,14,14,59,862.20
2007,06,14,15,00,851.40
2007,06,14,15,01,834.60
2007,06,14,15,02,829.60
2007,06,14,15,03,817.50
2007,06,14,15,04,813.40
2007,06,14,15,05,832.80
2007,06,14,15,06,850.20
2007,06,14,15,07,877.20
2007,06,14,15,08,883.80
2007,06,14,15,09,871.00
2007,06,14,15,10,826.50
2007,06,14,15,11,815.60
2007,06,14,15,12,823.30
2007,06,14,15,13,764.70
2007,06,14,15,14,811.20
2007,06,14,15,15,833.10
2007,06,14,15,16,829.30
2007,06,14,15,17,829.00
2007,06,14,15,18,800.30
2007,06,14,15,19,803.70
2007,06,14,15,20,818.50
2007,06,14,15,21,867.00
2007,06,14,15,22,861.60
2007,06,14,15,23,862.30
2007,06,14,15,24,867.00
2007,06,14,15,25,845.20
2007,06,14,15,26,823.00
2007,06,14,15,27,801.00
2007,06,14,15,28,749.60
2007,06,14,15,29,745.50
2007,06,14,15,30,755.10
2007,06,14,15,31,758.00
2007,06,14,15,32,783.70
2007,06,14,15,33,813.20
2007,06,14,15,34,837.70
2007,06,14,15,35,829.70
2007,06,14,15,36,813.40
2007,06,14,15,37,763.00
2007,06,14,15,38,769.90
2007,06,14,15,39,743.60
2007,06,14,15,40,754.00
2007,06,14,15,41,751.90
2007,06,14,15,42,719.50
2007,06,14,15,43,685.50
2007,06,14,15,44,671.80
2007,06,14,15,45,736.70
2007,06,14,15,46,720.20
2007,06,14,15,47,749.20
2007,06,14,15,48,727.50
2007,06,14,15,49,741.90
2007,06,14,15,50,714.80
2007,06,14,15,51,686.50
2007,06,14,15,52,700.90
2007,06,14,15,53,713.80
2007,06,14,15,54,690.40
2007,06,14,15,55,672.60
2007,06,14,15,56,668.30
2007,06,14,15,57,725.50
2007,06,14,15,58,693.80
2007,06,14,15,59,750.80
2007,06,14,16,00,745.50
2007,06,14,16,01,711.00
2007,06,14,16,02,704.00
2007,06,14,16,03,710.90
2007,06,14,16,04,728.20
2007,06,14,16,05,723.30
2007,06,14,16,06,741.00
2007,06,14,16,07,705.80
2007,06,14,16,08,667.20
2007,06,14,16,09,624.70
2007,06,14,16,10,671.10
2007,06,14,16,11,731.50
2007,06,14,16,12,748.20
2007,06,14,16,13,751.50
2007,06,14,16,14,739.50
2007,06,14,16,15,727.30
2007,06,14,16,16,707.00
2007,06,14,16,17,712.00
2007,06,14,16,18,727.60
2007,06,14,16,19,768.80
2007,06,14,16,20,712.20
2007,06,14,16,21,796.00
2007,06,14,16,22,807.10
2007,06,14,16,23,801.60
2007,06,14,16,24,792.30
2007,06,14,16,25,762.00
2007,06,14,16,26,765.00
2007,06,14,16,27,769.20
2007,06,14,16,28,756.20
2007,06,14,16,29,720.70
2007,06,14,16,30,668.50
2007,06,14,16,31,624.90
2007,06,14,16,32,392.00
2007,06,14,16,33,417.60
2007,06,14,16,34,446.70
2007,06,14,16,35,427.00
2007,06,14,16,36,461.50
2007,06,14,16,37,502.20
2007,06,14,16,38,529.50
2007,06,14,16,39,539.70
2007,06,14,16,40,511.30
2007,06,14,16,41,567.70
2007,06,14,16,42,609.00
2007,06,14,16,43,666.00
2007,06,14,16,44,619.80
2007,06,14,16,45,528.00
2007,06,14,16,46,532.50
2007,06,14,16,47,485.00
2007,06,14,16,48,441.90
2007,06,14,16,49,452.00
2007,06,14,16,50,411.40
2007,06,14,16,51,440.40
2007,06,14,16,52,454.20
2007,06,14,16,53,622.20
2007,06,14,16,54,591.20
2007,06,14,16,55,591.00
2007,06,14,16,56,574.80
2007,06,14,16,57,620.50
2007,06,14,16,58,654.10
2007,06,14,16,59,619.70
2007,06,14,17,00,591.00
2007,06,14,17,01,483.80
2007,06,14,17,02,473.20
2007,06,14,17,03,422.00
2007,06,14,17,04,442.40
2007,06,14,17,05,623.40
2007,06,14,17,06,616.90
2007,06,14,17,07,593.60
2007,06,14,17,08,503.00